{"data":{"norad_id":53497,"intl_designator":"2022-099AJ","name":"STARLINK-4453","alt_names":[],"object_type":"PAYLOAD","status":"ACTIVE","operator":null,"country":"US","launch_date":"2022-08-12","launch_site_code":"AFWTR","launch_vehicle":null,"mission":null,"orbit_class":"UNKNOWN","rcs_meters":null,"size_class":null,"mass_kg":null,"dimensions":null,"purposes":["comms"],"wikipedia_slug":null,"has_3d_model":false,"image_url":null,"decayed_at":null,"tle_current":{"epoch":"2026-09-20T22:00:03.000096Z","epoch_age_seconds":42285,"freshness":"FRESH","line1":"1 53497U 22099AJ  26263.91670139  .00733005  00000+0  28591-1 0  9998","line2":"2 53497  97.2854  17.7798 0001647  87.6138 212.7870 15.23513318  5784","mean_motion":15.23513318,"eccentricity":0.0001647,"inclination_deg":97.2854,"raan_deg":17.7798,"arg_perigee_deg":87.6138,"mean_anomaly_deg":212.787,"bstar":0.028591,"rev_number":578,"period_min":94.518372959835,"perigee_km":494.12123627285,"apogee_km":496.38533103229,"semimajor_km":6873.3902836526,"source":"CELESTRAK","updated_at":"2026-09-21T09:00:32.895065Z"}}}